Location: Hopewell Observatory
(38.8698°N, 77.6988°W)
Time: 00:31:25
(UTC-04:00)

Cosmos 1892 Rocket - Pass Details

Date: 26 May 2018
Orbit: 607 x 632 km, 82.5° (Epoch: 24 June)

Event Time Altitude Azimuth Distance (km) Brightness Sun altitude
Exits shadow 23:14:29 44° 58° (ENE) 847 4.2 -24.2°
Drops below altitude 10° 23:17:54 10° 18° (NNE) 1,968 6.7 -24.6°
Sets 23:20:11 0° 14° (NNE) 2,879 7.7 -24.8°
